FW7644 Weather Reports


time (UTC)temp
F
wind
direction
speed
knots
gust
knots
rain 1hr
in
rain 24hr
in
rain mn
in
humidity
%
barometer
mb
20260508130925 68 0.0 0.0 0.00 0.00 0.00 88 1015.1
20260508130423 68 0.0 0.0 0.00 0.00 0.00 87 1015.1
20260508125920 68 0.0 0.0 0.00 0.00 0.00 87 1015.0
20260508125418 68 0.0 0.0 0.00 0.00 0.00 87 1015.1
20260508124916 69 0.0 0.0 0.00 0.00 0.00 85 1015.1
20260508124414 69 0.0 0.0 0.00 0.00 0.00 85 1014.9
20260508123911 69 0.0 0.0 0.00 0.00 0.00 85 1014.9
20260508123410 68 0.0 0.0 0.00 0.00 0.00 85 1014.8
20260508122907 69 0.0 0.0 0.00 0.00 0.00 84 1014.8
20260508122405 69 0.0 0.0 0.00 0.00 0.00 83 1014.7
20260508121903 69 0.0 0.0 0.00 0.00 0.00 83 1014.7
20260508121401 69 0.0 0.0 0.00 0.00 0.00 82 1014.4
20260508120858 69 0.0 0.0 0.00 0.00 0.00 83 1014.4
20260508120356 68 0.0 0.0 0.00 0.00 0.00 83 1014.4
20260508115854 69 0.0 0.0 0.00 0.00 0.00 82 1014.4
20260508115352 69 0.0 0.0 0.00 0.00 0.00 80 1014.3
20260508114850 69 0.0 0.0 0.00 0.00 0.00 81 1014.5
20260508114348 68 0.0 0.0 0.00 0.00 0.00 82 1014.5
20260508113845 68 0.0 0.0 0.00 0.00 0.00 82 1014.5
20260508113343 68 0.0 0.0 0.00 0.00 0.00 82 1014.5
20260508112841 68 0.0 0.0 0.00 0.00 0.00 82 1014.4
20260508112340 68 0.0 0.0 0.00 0.00 0.00 83 1014.4
20260508111838 68 0.0 0.0 0.00 0.00 0.00 82 1014.4
20260508111337 68 0.0 0.0 0.00 0.00 0.00 83 1014.2
20260508110835 68 0.0 0.0 0.00 0.00 0.00 83 1014.0
20260508110334 68 0.0 0.0 0.00 0.00 0.00 83 1013.8
20260508105832 67 0.0 0.0 0.00 0.00 0.00 83 1013.8
20260508105330 67 0.0 0.0 0.00 0.00 0.00 83 1013.7
20260508104828 67 0.0 0.0 0.00 0.00 0.00 83 1013.7
20260508104326 67 0.0 0.0 0.00 0.00 0.00 83 1013.7
20260508103824 67 0.0 0.0 0.00 0.00 0.00 83 1013.6
20260508103323 67 0.0 0.0 0.00 0.00 0.00 84 1013.6
20260508102821 67 0.0 0.0 0.00 0.00 0.00 83 1013.6
20260508102319 67 0.0 0.0 0.00 0.00 0.00 82 1013.5
20260508101817 67 0.0 0.0 0.00 0.00 0.00 82 1013.3
20260508101316 67 0.0 0.0 0.00 0.00 0.00 81 1013.2
20260508100814 67 0.0 0.0 0.00 0.00 0.00 82 1013.2
20260508100312 67 0.0 0.0 0.00 0.00 0.00 84 1013.2
20260508095810 66 0.0 0.0 0.00 0.00 0.00 85 1013.2
20260508095308 67 0.0 0.0 0.00 0.00 0.00 84 1013.1
20260508094807 66 0.0 0.0 0.00 0.00 0.00 85 1012.9
20260508094305 66 0.0 0.0 0.00 0.00 0.00 88 1012.8
20260508093803 66 0.0 0.0 0.00 0.00 0.00 89 1012.6
20260508093302 66 0.0 0.0 0.00 0.00 0.00 88 1012.5
20260508092800 66 0.0 0.0 0.00 0.00 0.00 87 1012.5
20260508092258 66 0.0 0.0 0.00 0.00 0.00 87 1012.3
20260508091756 66 0.0 0.0 0.00 0.00 0.00 87 1012.2
20260508091255 66 0.0 0.0 0.00 0.00 0.00 87 1012.0
20260508090753 66 0.0 0.0 0.00 0.00 0.00 88 1011.9
20260508090251 66 0.0 0.0 0.00 0.00 0.00 88 1012.0
20260508085750 66 0.0 0.0 0.00 0.00 0.00 89 1012.0
20260508085248 66 0.0 0.0 0.00 0.00 0.00 89 1012.0
20260508084746 66 0.0 0.0 0.00 0.00 0.00 89 1012.0
20260508084244 66 0.0 0.0 0.00 0.00 0.00 88 1011.8
20260508083742 66 0.0 0.0 0.00 0.00 0.00 90 1011.5
20260508083240 66 0.0 0.0 0.00 0.00 0.00 90 1011.6
20260508082739 66 0.0 0.0 0.00 0.00 0.00 90 1011.8
20260508082237 66 0.0 0.0 0.00 0.00 0.00 90 1012.0
20260508081736 66 0.0 0.0 0.00 0.00 0.00 90 1012.0
20260508081234 66 0.0 0.0 0.00 0.00 0.00 91 1012.0
20260508080732 65 0.0 0.0 0.00 0.00 0.00 93 1012.0
20260508080230 65 0.0 0.0 0.00 0.00 0.00 95 1012.0
20260508075729 65 0.0 0.0 0.00 0.00 0.00 94 1011.9
20260508075227 65 0.0 0.0 0.00 0.00 0.00 94 1011.9
20260508074726 65 0.0 0.0 0.00 0.00 0.00 95 1011.9
20260508074224 65 0.0 0.0 0.00 0.00 0.00 96 1011.8
20260508073723 65 0.0 0.0 0.00 0.00 0.00 95 1011.7
20260508073221 65 0.0 0.0 0.00 0.00 0.00 94 1011.7
20260508072720 65 0.0 0.0 0.00 0.00 0.00 94 1011.6
20260508072218 65 0.0 0.0 0.00 0.00 0.00 95 1011.7
20260508071717 65 0.0 0.0 0.00 0.00 0.00 95 1011.9
20260508071215 65 0.0 0.0 0.00 0.00 0.00 94 1012.2
20260508070714 65 0.0 0.0 0.00 0.00 0.00 94 1012.3
20260508070212 65 0.0 0.0 0.00 0.00 0.00 96 1012.3
20260508065710 65 0.0 0.0 0.00 0.00 0.00 96 1012.4
20260508065208 65 0.0 0.0 0.00 0.00 0.00 96 1012.5
20260508064707 65 0.0 0.0 0.00 0.00 0.00 95 1012.7
20260508064206 65 0.0 0.0 0.00 0.00 0.00 95 1012.9
20260508063704 65 0.0 0.0 0.00 0.00 0.00 96 1013.0
20260508063202 65 0.0 0.0 0.00 0.00 0.00 96 1013.2
20260508062700 65 0.0 0.0 0.00 0.00 0.00 96 1013.3
20260508062158 65 0.0 0.0 0.00 0.00 0.00 97 1013.3
20260508061657 64 0.0 0.0 0.00 0.00 0.00 98 1013.2
20260508061155 64 0.0 0.0 0.00 0.00 0.00 99 1013.3
20260508060653 64 0.0 0.0 0.00 0.00 0.00 99 1013.4
20260508060152 64 0.0 0.0 0.00 0.00 0.00 99 1013.4
20260508055650 64 0.0 0.0 0.00 0.00 0.00 99 1013.4
20260508055148 64 0.0 0.0 0.00 0.00 0.00 99 1013.4
20260508054647 63 0.0 0.0 0.00 0.00 0.00 99 1013.5
20260508054145 62 0.0 0.0 0.00 0.00 0.00 99 1013.4
20260508053643 62 0.0 0.0 0.00 0.00 0.00 99 1013.4
20260508053141 62 0.0 0.0 0.00 0.00 0.00 99 1013.5
20260508052639 62 0.0 0.0 0.00 0.00 0.00 99 1013.5
20260508052138 61 0.0 0.0 0.00 0.00 0.00 99 1013.5
20260508051636 62 0.0 0.0 0.00 0.00 0.00 99 1013.4
20260508051134 62 0.0 0.0 0.00 0.00 0.00 99 1013.3
20260508050632 62 0.0 0.0 0.00 0.00 0.00 99 1013.4
20260508050131 62 0.0 0.0 0.00 0.00 0.00 99 1013.3
20260508045630 61 0.0 0.0 0.00 0.00 0.00 99 1013.4
20260508045128 61 0.0 0.0 0.00 0.00 0.00 99 1013.3
20260508044626 60 0.0 0.0 0.00 0.00 0.00 99 1013.2
20260508044125 60 0.0 0.0 0.00 0.00 0.00 99 1013.2
20260508043623 60 0.0 0.0 0.00 0.00 0.00 99 1013.2
20260508043121 60 0.0 0.0 0.00 0.00 0.00 99 1013.2
20260508042619 60 0.0 0.0 0.00 0.00 0.00 99 1013.2
20260508042117 61 0.0 0.0 0.00 0.00 0.00 99 1013.3
20260508041615 61 0.0 0.0 0.00 0.00 0.00 99 1013.3
20260508041114 61 0.0 0.0 0.00 0.00 0.00 99 1013.3
20260508040612 61 0.0 0.0 0.00 0.00 0.00 99 1013.4
20260508040110 61 0.0 0.0 0.00 0.00 0.00 99 1013.4
20260508035608 61 0.0 0.0 0.00 0.00 0.00 99 1013.5
20260508035107 62 0.0 0.0 0.00 0.00 0.00 99 1013.3
20260508034605 62 0.0 0.0 0.00 0.00 0.00 99 1013.4
20260508034103 62 0.0 0.0 0.00 0.00 0.00 99 1013.3
20260508033601 62 0.0 0.0 0.00 0.00 0.00 99 1013.4
20260508033059 62 0.0 0.0 0.00 0.00 0.00 99 1013.5
20260508032558 63 0.0 0.0 0.00 0.00 0.00 99 1013.6
20260508032056 63 0.0 0.0 0.00 0.00 0.00 99 1013.7
20260508031554 62 0.0 0.0 0.00 0.00 0.00 99 1013.7
20260508031052 61 0.0 0.0 0.00 0.00 0.00 99 1013.6
20260508030551 61 0.0 0.0 0.00 0.00 0.00 99 1013.7
20260508030049 61 0.0 0.0 0.00 0.00 0.00 99 1013.6
20260508025547 61 0.0 0.0 0.00 0.00 0.00 99 1013.7
20260508025045 61 0.0 0.0 0.00 0.00 0.00 99 1013.7
20260508024543 61 0.0 0.0 0.00 0.00 0.00 99 1013.7
20260508024042 61 0.0 0.0 0.00 0.00 0.00 99 1013.7
20260508023540 61 0.0 0.0 0.00 0.00 0.00 99 1013.7
20260508023038 61 0.0 0.0 0.00 0.00 0.00 99 1013.7
20260508022536 61 0.0 0.0 0.00 0.00 0.00 99 1013.8
20260508022034 61 0.0 0.0 0.00 0.00 0.00 99 1013.9
20260508021533 62 0.0 0.0 0.00 0.00 0.00 99 1013.9
20260508021031 62 0.0 0.0 0.00 0.00 0.00 99 1013.8
20260508020529 62 0.0 0.0 0.00 0.00 0.00 99 1013.9
20260508020027 62 0.0 0.0 0.00 0.00 0.00 99 1014.0
20260508015525 62 0.0 0.0 0.00 0.00 0.00 99 1014.0
20260508015023 62 0.0 0.0 0.00 0.00 0.00 99 1014.0
20260508014522 62 0.0 0.0 0.00 0.00 0.00 99 1014.1
20260508014020 62 0.0 0.0 0.00 0.00 0.00 99 1014.1
20260508013518 62 0.0 0.0 0.00 0.00 0.00 99 1014.2
20260508013016 62 0.0 0.0 0.00 0.00 0.00 99 1014.2
20260508012514 62 0.0 0.0 0.00 0.00 0.00 99 1014.2
20260508012012 62 0.0 0.0 0.00 0.00 0.00 99 1014.1
20260508011511 62 0.0 0.0 0.00 0.00 0.00 99 1014.1
20260508011009 62 0.0 0.0 0.00 0.00 0.00 99 1014.1
20260508010507 63 0.0 0.0 0.00 0.00 0.00 99 1014.1
20260508010004 63 0.0 0.0 0.00 0.00 0.00 99 1014.2
20260508005503 63 0.0 0.0 0.00 0.00 0.00 99 1014.3
20260508005001 63 0.0 0.0 0.00 0.00 0.00 99 1014.4
20260508004459 63 0.0 0.0 0.00 0.00 0.00 99 1014.3
20260508003958 63 0.0 0.0 0.00 0.00 0.00 99 1014.3
20260508003455 63 0.0 0.0 0.00 0.00 0.00 99 1014.3
20260508002954 63 0.0 0.0 0.00 0.00 0.00 99 1014.4
20260508002452 63 0.0 0.0 0.00 0.00 0.00 99 1014.5
20260508001950 64 0.0 0.0 0.00 0.00 0.00 99 1014.5
20260508001448 64 0.0 0.0 0.00 0.00 0.00 99 1014.5
20260508000945 64 0.0 0.0 0.00 0.00 0.00 99 1014.3
20260508000443 64 0.0 0.0 0.00 0.00 0.00 98 1014.1
20260507235941 64 0.0 0.0 0.00 0.00 0.00 98 1013.9
20260507235439 64 0.0 0.0 0.00 0.00 0.00 96 1014.0
20260507234938 64 0.0 0.0 0.00 0.00 0.00 96 1014.0
20260507234436 65 0.0 0.0 0.00 0.00 0.00 95 1014.0
20260507233933 65 0.0 0.0 0.00 0.00 0.00 94 1014.1
20260507233431 65 0.0 0.0 0.00 0.00 0.00 94 1014.1
20260507232929 65 0.0 0.0 0.00 0.00 0.00 94 1013.9
20260507232428 65 0.0 0.0 0.00 0.00 0.00 95 1013.9
20260507231926 65 0.0 0.0 0.00 0.00 0.00 96 1013.9
20260507231424 65 0.0 0.0 0.00 0.00 0.00 96 1013.9
20260507230922 65 0.0 0.0 0.00 0.00 0.00 95 1014.0
20260507230419 66 0.0 0.0 0.00 0.00 0.00 93 1013.9
20260507225917 66 0.0 0.0 0.00 0.00 0.00 92 1013.9
20260507225415 67 0.0 0.0 0.00 0.00 0.00 90 1013.8
20260507224913 67 0.0 0.0 0.00 0.00 0.00 88 1013.7
20260507224412 67 0.0 0.0 0.00 0.00 0.00 87 1013.8
20260507223910 67 0.0 0.0 0.00 0.00 0.00 87 1013.8
20260507223408 67 0.0 0.0 0.00 0.00 0.00 86 1013.8
20260507222906 67 0.0 0.0 0.00 0.00 0.00 85 1013.8
20260507222404 68 0.0 0.0 0.00 0.00 0.00 85 1013.7
20260507221902 68 0.0 0.0 0.00 0.00 0.00 84 1013.6
20260507221359 68 0.0 0.0 0.00 0.00 0.00 83 1013.6
20260507220859 68 0.0 0.0 0.00 0.00 0.00 82 1013.5
20260507220356 69 0.0 0.0 0.00 0.00 0.00 81 1013.5
20260507215852 69 0.0 0.0 0.00 0.00 0.00 81 1013.5
20260507215350 68 0.0 0.0 0.00 0.00 0.00 81 1013.4
20260507214847 69 0.0 0.0 0.00 0.00 0.00 80 1013.3
20260507214345 69 0.0 0.0 0.00 0.00 0.00 78 1013.3
20260507213844 69 0.0 0.0 0.00 0.00 0.00 76 1013.4
20260507213342 70 0.0 0.0 0.00 0.00 0.00 74 1013.2
20260507212840 71 0.0 0.0 0.00 0.00 0.00 72 1013.2
20260507212338 71 0.0 0.0 0.00 0.00 0.00 72 1013.2
20260507211836 71 0.0 0.0 0.00 0.00 0.00 71 1013.2
20260507211334 71 0.0 0.0 0.00 0.00 0.00 71 1013.2
20260507210832 71 0.0 0.0 0.00 0.00 0.00 70 1013.3
20260507210330 72 0.0 0.0 0.00 0.00 0.00 69 1013.2
20260507205828 72 0.0 0.0 0.00 0.00 0.00 68 1013.1
20260507205325 72 0.0 0.0 0.00 0.00 0.00 68 1013.1
20260507204823 73 0.0 0.0 0.00 0.00 0.00 67 1013.2
20260507204321 73 0.0 0.0 0.00 0.00 0.00 66 1013.1
20260507203818 73 0.0 0.0 0.00 0.00 0.00 66 1013.1
20260507203317 73 0.0 0.0 0.00 0.00 0.00 65 1013.1
20260507202815 74 0.0 0.0 0.00 0.00 0.00 64 1013.0
20260507202313 74 0.0 0.0 0.00 0.00 0.00 63 1013.0
20260507201812 75 0.0 0.0 0.00 0.00 0.00 61 1013.0
20260507201310 75 0.0 0.0 0.00 0.00 0.00 60 1013.0
20260507200808 76 0.0 0.0 0.00 0.00 0.00 57 1013.0
20260507200307 76 0.0 0.0 0.00 0.00 0.00 57 1013.0
20260507195805 76 0.0 0.0 0.00 0.00 0.00 57 1013.0
20260507195305 77 0.0 0.0 0.00 0.00 0.00 55 1013.0
20260507194801 78 0.0 0.0 0.00 0.00 0.00 54 1012.9
20260507194300 77 0.0 0.0 0.00 0.00 0.00 56 1013.0
20260507193758 77 0.0 0.0 0.00 0.00 0.00 56 1013.0
20260507193256 77 0.0 0.0 0.00 0.00 0.00 54 1013.0
20260507192754 77 0.0 0.0 0.00 0.00 0.00 53 1013.1
20260507192253 77 0.0 0.0 0.00 0.00 0.00 53 1013.0
20260507191750 78 0.0 0.0 0.00 0.00 0.00 53 1013.0
20260507191248 77 0.0 0.0 0.00 0.00 0.00 52 1013.1
20260507190746 78 0.0 0.0 0.00 0.00 0.00 51 1013.1
20260507190245 81 0.0 0.0 0.00 0.00 0.00 47 1013.2
20260507185743 81 0.0 0.0 0.00 0.00 0.00 47 1013.2
20260507185242 82 0.0 0.0 0.00 0.00 0.00 45 1013.4
20260507184740 82 0.0 0.0 0.00 0.00 0.00 46 1013.4
20260507184238 82 0.0 0.0 0.00 0.00 0.00 46 1013.4
20260507183736 80 0.0 0.0 0.00 0.00 0.00 47 1013.3
20260507183234 81 0.0 0.0 0.00 0.00 0.00 46 1013.3
20260507182732 82 0.0 0.0 0.00 0.00 0.00 46 1013.4
20260507182231 82 0.0 0.0 0.00 0.00 0.00 45 1013.3
20260507181729 82 0.0 0.0 0.00 0.00 0.00 45 1013.4
20260507181227 82 0.0 0.0 0.00 0.00 0.00 45 1013.5
20260507180726 81 0.0 0.0 0.00 0.00 0.00 45 1013.5
20260507180224 83 0.0 0.0 0.00 0.00 0.00 43 1013.5
20260507175722 83 0.0 0.0 0.00 0.00 0.00 43 1013.6
20260507175220 81 0.0 0.0 0.00 0.00 0.00 44 1013.6
20260507174718 83 0.0 0.0 0.00 0.00 0.00 42 1013.6
20260507174217 81 0.0 0.0 0.00 0.00 0.00 43 1013.7
20260507173715 81 0.0 0.0 0.00 0.00 0.00 43 1013.8
20260507173213 82 0.0 0.0 0.00 0.00 0.00 42 1013.8
20260507172711 82 0.0 0.0 0.00 0.00 0.00 43 1013.8
20260507172210 83 0.0 0.0 0.00 0.00 0.00 41 1013.8
20260507171708 83 0.0 0.0 0.00 0.00 0.00 41 1013.8
20260507171206 84 0.0 0.0 0.00 0.00 0.00 41 1013.8
20260507170704 82 0.0 0.0 0.00 0.00 0.00 43 1013.9
20260507170203 82 0.0 0.0 0.00 0.00 0.00 41 1014.0
20260507165701 83 0.0 0.0 0.00 0.00 0.00 41 1014.0
20260507165159 82 0.0 0.0 0.00 0.00 0.00 42 1014.1
20260507164657 82 0.0 0.0 0.00 0.00 0.00 41 1014.2
20260507164155 83 0.0 0.0 0.00 0.00 0.00 40 1014.3
20260507163652 83 0.0 0.0 0.00 0.00 0.00 39 1014.4
20260507163151 82 0.0 0.0 0.00 0.00 0.00 40 1014.5
20260507162649 82 0.0 0.0 0.00 0.00 0.00 42 1014.5
20260507162147 82 0.0 0.0 0.00 0.00 0.00 43 1014.6
20260507161645 84 0.0 0.0 0.00 0.00 0.00 42 1014.7
20260507161143 83 0.0 0.0 0.00 0.00 0.00 43 1014.8
20260507160641 83 0.0 0.0 0.00 0.00 0.00 42 1014.8
20260507160140 82 0.0 0.0 0.00 0.00 0.00 41 1015.0
20260507155636 83 0.0 0.0 0.00 0.00 0.00 42 1015.2
20260507155134 81 0.0 0.0 0.00 0.00 0.00 44 1015.3
20260507154632 82 0.0 0.0 0.00 0.00 0.00 45 1015.4
20260507154127 82 0.0 0.0 0.00 0.00 0.00 43 1015.5
20260507153625 82 0.0 0.0 0.00 0.00 0.00 44 1015.6
20260507153123 81 0.0 0.0 0.00 0.00 0.00 45 1015.6
20260507152622 81 0.0 0.0 0.00 0.00 0.00 46 1015.7
20260507152120 82 0.0 0.0 0.00 0.00 0.00 45 1015.9
20260507151619 82 0.0 0.0 0.00 0.00 0.00 45 1015.9
20260507151117 82 0.0 0.0 0.00 0.00 0.00 45 1016.0
20260507150615 82 0.0 0.0 0.00 0.00 0.00 44 1016.1
20260507150114 82 0.0 0.0 0.00 0.00 0.00 45 1016.2
20260507145612 81 0.0 0.0 0.00 0.00 0.00 46 1016.4
20260507145110 80 0.0 0.0 0.00 0.00 0.00 48 1016.5
20260507144608 82 0.0 0.0 0.00 0.00 0.00 47 1016.6
20260507144106 81 0.0 0.0 0.00 0.00 0.00 48 1016.7
20260507143605 81 0.0 0.0 0.00 0.00 0.00 49 1016.8
20260507143103 80 0.0 0.0 0.00 0.00 0.00 49 1016.8
20260507142601 80 0.0 0.0 0.00 0.00 0.00 50 1016.9
20260507142059 81 0.0 0.0 0.00 0.00 0.00 51 1017.0
20260507141558 80 0.0 0.0 0.00 0.00 0.00 51 1017.0
20260507141056 80 0.0 0.0 0.00 0.00 0.00 54 1017.0
20260507140555 79 0.0 0.0 0.00 0.00 0.00 57 1017.0
20260507140052 80 0.0 0.0 0.00 0.00 0.00 57 1017.2
20260507135550 79 0.0 0.0 0.00 0.00 0.00 62 1017.2
20260507135048 79 0.0 0.0 0.00 0.00 0.00 60 1017.2
20260507134547 79 0.0 0.0 0.00 0.00 0.00 60 1017.3
20260507134045 79 0.0 0.0 0.00 0.00 0.00 61 1017.3
20260507133543 77 0.0 0.0 0.00 0.00 0.00 66 1017.3
20260507133042 75 0.0 0.0 0.00 0.00 0.00 70 1017.4
20260507132540 74 0.0 0.0 0.00 0.00 0.00 72 1017.6
20260507132038 74 0.0 0.0 0.00 0.00 0.00 70 1017.6
20260507131534 76 0.0 0.0 0.00 0.00 0.00 66 1017.6